CZ-6A DEB, 64638

Orbit data source: Space-Track

CZ-6A DEB, 64638 is space debris in LEO originally from a launch on Tue, 06 Aug 2024 UTC launched from the Taiyaun Space Center, China (TSC). Debris objects in space refer to the collection of defunct objects orbiting the Earth. Examples of debris include non-operational satellites, rocket bodies, and fragments generated from explosions, collisions, or faulty payload assembly.

Loading next visibility...
Identifier
64638, 2024-140AEC
Orbit
LEO
Country
Flag of CNCN / PRC
Related business
Manufacturer
SAST
Mission
Spacecraft
Bus & Motor
Unknown
Mass
Unknown
Launch date (UTC)
2024-08-06 (2 years ago)
Launch vehicle
Unknown
Launch site
Taiyaun Space Center, China (TSC)
Object type
Payload
Rocket body
Debris
Shape & HBR
Unknown shape, 0.1 m
Radar Cross Section
Small (<0.1 m²)

Expand to show TLE details & history
Last TLE update: 7 hours ago

TLE from 7 hours ago
0 CZ-6A DEB
1 64638U 24140AEC 26118.86286538  .00007994  00000-0  21987-2 0  9990
2 64638  88.8571 267.3223 0049344 160.1717 200.1421 14.46163808 84797
Epoch: 2026-04-28T20:42Z
TLE epoch observation values (Epoch: 2026-04-28T20:42:31.568Z)
Latitude
-0.00002°
Longitude
99.85868°
Altitude
774.291 km
Speed
7.45 km/s
True Right ascension
17h 49m 17s
True Declination
0° 00' 00"
Sunlit
Object was in full shadow at epoch
Visualization orbit readout
Latitude
Unknown
Longitude
Unknown
Altitude
Unknown
Speed
Unknown
Apparent Right ascension
Unknown
Apparent Declination
Unknown
Sunlit
N/A
Visualization observer readout
Local Sidereal Time
10:59:58
Azimuth
Unknown
Elevation
Unknown
Doppler factor
Unknown
Orbital elements
Apogee altitude
770.22 km
Perigee altitude
700.021 km
Semi-major axis
7,113.257 km
Eccentricity
0.00493
Inclination
88.8571°
RAAN
267.3223°
Arg. of periapsis
160.1717°
True anomaly
199.94851°
Mean anomaly
200.1421°
Eccentric anomaly
200.04519°
Mean motion
3.61777 °/min
Orbital period
99.51 mins
BSTAR
0.0021987
Loading maneuver chart data...
Computing Atmospheric mass density...
Loading historical data...
Loading historical data...
Loading historical data...
Loading historical data...
Loading historical data...
Loading historical data...
Loading historical data...

Documentation

Showing up to 5 results
|